Weather in Comilla

Bangladesh     23°27′51″N   91°11′17″E
temp.,
°C
wind,
m/s
gust,
m/s
humid.,
%
clouds,
%
prec.,
mm/h
press.,
hPa
HPBL,
m
5 august, thu
thu500:00+26sse25925 0.1 1002178
03:00+26ese119398 0.0 100011
06:00+26ene11935 0.0 100035
09:00+30w117627 0.3 1000671
12:00+32wsw116791 3.6 1000983
15:00+32ssw2267100 5.3 9981014
18:00+30ssw3481100 7.6 99890
21:00+27sse3891100 0.8 1001250
6 august, fri
fri600:00+26se3792100 0.8 1001226
03:00+26se3793100 0.2 999211
06:00+26se599486 0.3 1001361
09:00+25se5894100 0.0 1003413
12:00+31sse447177 0.1 10011159
15:00+31s557186 2.3 9991170
18:00+28s588252 3.1 1000460
21:00+25sse4109460 0.3 1002351
7 august, sat
sat700:00+25sse41095100 0.9 1003345
03:00+25sse41094100 0.1 1002351
06:00+25se499493 0.1 1003312
09:00+28sse578388 0.0 1005652
12:00+31s676872 0.1 10031336
15:00+31s56719 0.4 10011158
18:00+28s58815 0.4 1001464
21:00+27sse410905 0.0 1004458
8 august, sun
sun800:00+26sse4109581 4.2 1005350
03:00+26se4109491 4.0 1004342
06:00+25se49969 4.0 1005341
09:00+29sse578048 0.0 1006842
12:00+30sse5672100 0.3 10041132
15:00+31s6767100 0.0 10031313
18:00+28s598262 0.0 1003504
21:00+27sse510889 0.0 1006490
9 august, mon
mon900:00+27sse4109233 0.0 1006477
03:00+26sse41093100 0.0 1005428
06:00+25se499417 0.0 1005373
09:00+29sse577820 0.6 1007775
12:00+31sse567084 1.1 10051231
15:00+31s677154 0.1 10021232
18:00+28s598182 0.1 1003497
21:00+27sse498939 0.0 1004428